Regional Weather Roundup
Issued by NWS

Home | Current Version | Previous Version | Text Only | Print | Product List | Glossary On
Versions: 1 2 3 4 5 6 7 8 9 10 11 12 13 14 15 16 17 18 19 20 21 22 23 24 25 26 27 28 29 30 31 32 33 34 35 36 37 38 39 40 41 42 43 44 45 46 47 48 49 50
000
ASUS43 KDTX 231101
RWRMI
MICHIGAN HOURLY REGIONAL WEATHER ROUNDUP
NATIONAL WEATHER SERVICE DETROIT/PONTIAC MI
700 AM EDT THU OCT 23 2014

NOTE: "FAIR" INDICATES FEW OR NO CLOUDS BELOW 12,000 FEET WITH NO
SIGNIFICANT WEATHER AND/OR OBSTRUCTION TO VISIBILITY.

MIZ047>049-052>055-059>063-066>070-074>076-081>083-231200-
SOUTHEAST LOWER MICHIGAN

CITY           SKY/WX    TMP DP  RH WIND       PRES   REMARKS
ADRIAN         CLEAR     31  31 100 CALM      30.26S FOG
ALMA           FOG       30  30  99 CALM      30.26S VSB 1/2
ANN ARBOR      CLEAR     30  27  88 CALM      30.24F
BAD AXE        CLOUDY    26  26 100 CALM      30.25S FOG
CARO           FOG       27  26  96 CALM      30.25F VSB 3/4
DETROIT CITY   CLEAR     40  35  83 NW3       30.25S
DETROIT        CLEAR     37  34  89 CALM      30.25F
FLINT          FOG       30  26  85 CALM      30.25F VSB 1/4
GROSSE ILE     CLEAR     37  36  93 NW6       30.24S WCI  33
HILLSDALE      FOG       29  29 100 CALM      30.24S VSB 1/4
HOWELL         FOG       29  29 100 CALM      30.24F VSB 1/2

CITY           SKY/WX    TMP DP  RH WIND       PRES   REMARKS
JACKSON        FOG       28  27  96 CALM      30.25S VSB 1/2
LAMBERTVILLE     N/A     34  32  93 CALM      30.25S FOG
LANSING        PTCLDY    30  28  92 CALM      30.26S
LAPEER         FAIR      28  28  99 CALM      30.25S
MASON          CLOUDY    28  28  99 CALM      30.25F FOG
MONROE         CLEAR     34  34 100 CALM      30.24S FOG
MT. CLEMENS    CLEAR     37  37  99 NW6       30.22F WCI  32
PONTIAC        CLEAR     33  31  92 CALM      30.24F
PORT HOPE        N/A     33  31  92 W3        30.23S
PORT HURON     CLEAR     36  36 100 NW6       30.24S WCI  31
TRI CITIES     FOG       31  29  92 W5        30.27S VSB 1/2 WCI  26
TROY           CLEAR     39  36  86 NW5       30.26F
SAGINAW HB     CLEAR     30  30 100 CALM      30.26S FOG
$$
MIZ043>046-050>051-056>058-064>065-071>073-077>080-231200-
SOUTHWEST LOWER MICHIGAN

CITY           SKY/WX    TMP DP  RH WIND       PRES   REMARKS
BATTLE CREEK   FOG       30  28  92 CALM      30.26S VSB 1/4
BENTON HARBOR  CLEAR     34  33  96 SE6       30.24F FOG     WCI  29
BIG RAPIDS     FOG       28  28 100 CALM      30.24S VSB 1/4
COLDWATER      FOG       31  30  99 CALM      30.26S VSB 1/4
FREMONT        FOG       29  29 100 CALM      30.24S VSB 1
HOLLAND        MOCLDY    32  29  88 SE3       30.25S FOG
GRAND RAPIDS   MOCLDY    29  27  92 CALM      30.25S FOG
IONIA          FOG       29  29 100 CALM      30.25S VSB 1/4
KALAMAZOO      FOG       32  31  96 CALM      30.26S VSB 1/4
LUDINGTON      PTCLDY    31  30  96 CALM      30.23S FOG
MARSHALL       FOG       28  28  98 CALM      30.25S VSB 1/4
MOUNT PLEASANT LGT SNOW  28  28  99 CALM      30.25F VSB 1
MUSKEGON       CLEAR     31  28  89 SE3       30.25S FOG
SOUTH HAVEN    CLEAR     35  35  99 CALM      30.25R FOG
$$
MIZ016>042-231200-
NORTHERN LOWER MICHIGAN

CITY           SKY/WX    TMP DP  RH WIND       PRES   REMARKS
ALPENA         CLEAR     24  22  91 CALM      30.24S
BEAVER ISLAND  CLEAR     29  29  99 CALM      30.21F FOG
BELLAIRE       CLEAR     26  25  94 CALM      30.24F
CADILLAC       FOG       28  27  99 CALM      30.22S VSB 1/4
CHARLEVOIX     CLEAR     35  35  99 S7        30.25S WCI  29
FRANKFORT      PTCLDY    35  33  90 CALM      30.22S
GAYLORD        FOG       28  27  96 CALM      30.22S VSB 1/4
GRAYLING       FOG       27  26  99 CALM      30.24F VSB 1/4
HARBOR SPRINGS CLEAR     30  28  93 CALM      30.23S
HOUGHTON LAKE  FOG       24  24 100 E3        30.24S VSB 1/4
MANISTEE       PTCLDY    28  27  93 E6        30.24S WCI  22
OSCODA         PTCLDY    24  23  93 CALM      30.24S
PELLSTON       CLEAR     21  19  92 CALM      30.24S
TRAVERSE CITY  CLEAR     30  27  88 CALM      30.22F
$$
MIZ007>008-015-231200-
EASTERN UPPER MICHIGAN

CITY           SKY/WX    TMP DP  RH WIND       PRES   REMARKS
KINROSS        CLEAR     30  30 100 SE3       30.22S
MACKINAC ISLAN CLEAR     39  37  94 S6        30.22S WCI  35
NEWBERRY       CLEAR     33  33  99 W8        30.19S FOG     WCI  27
S. S. MARIE    CLEAR     32  30  92 E5        30.22R WCI  27
$$
MIZ004>006-011>014-085-231200-
CENTRAL UPPER MICHIGAN

CITY           SKY/WX    TMP DP  RH WIND       PRES   REMARKS
MANISTIQUE     MOCLDY    44  41  88 S7        30.19S
ESCANABA       PTCLDY    28  25  86 CALM      30.18S
MENOMINEE        N/A     37  34  87 CALM      30.17F VSB 3/4
SAWYER-GWINN   CLOUDY    39  37  93 S13       30.13F FOG     WCI  32
$$
MIZ001>003-009>011-084-231200-
WESTERN UPPER MICHIGAN

CITY           SKY/WX    TMP DP  RH WIND       PRES   REMARKS
IRON MOUNTAIN  CLOUDY    38  36  92 SE6       30.13F FOG     WCI  33
HOUGHTON       CLOUDY    42  39  89 S6        30.06F
COPPER HARBOR    N/A     46  39  76 SW13G20   30.06F
IRONWOOD       CLOUDY    48  39  71 S6        30.01S
$$

ABBREVIATIONS USED IN REMARKS
   TC - TEMPERATURE IN CELSIUS
  WCI - WIND CHILL INDEX
   HX - HEAT INDEX
  VSB - VISIBILITY




USA.gov is the U.S. government's official web portal to all federal, state and local government web resources and services.